Location: K�ln
(50.9455°N, 6.9544°E)
Time: 08:49:51
(UTC+02:00)

ISS - Visible Passes

Search period start: 28 May 2017 00:00
Search period end: 07 June 2017 00:00
Orbit: 402 x 408 km, 51.6° (Epoch: 28 May)

Date Brightness Start Highest point End Pass type
(mag) Time Alt. Az. Time Alt. Az. Time Alt. Az.
28 May -3.7 00:05:52 10° W 00:09:11 78° N 00:12:29 10° E visible
28 May -4.0 01:42:26 10° WNW 01:45:44 76° SSW 01:47:25 26° ESE visible
28 May -1.7 03:19:15 10° W 03:19:57 14° W 03:19:57 14° W visible
28 May -3.8 23:13:48 10° W 23:17:07 86° N 23:20:26 10° E visible
29 May -3.9 00:50:23 10° W 00:53:41 88° N 00:56:01 18° E visible
29 May -2.3 02:27:00 10° W 02:28:37 23° WSW 02:28:37 23° WSW visible
29 May -3.9 22:21:46 10° WSW 22:25:03 79° SSE 22:28:22 10° ENE visible
29 May -3.7 23:58:18 10° W 00:01:37 78° N 00:04:55 10° E visible
30 May -3.5 01:34:51 10° W 01:37:46 47° SW 01:37:46 47° SW visible
30 May -3.7 23:06:13 10° W 23:09:31 77° N 23:12:50 10° E visible
31 May -3.9 00:42:46 10° WNW 00:46:03 68° SSW 00:47:05 39° SE visible
31 May -3.9 23:50:40 10° W 23:53:59 87° SSW 23:56:29 16° ESE visible
01 Jun -2.3 01:27:20 10° W 01:29:07 23° WSW 01:29:07 23° WSW visible
01 Jun -3.7 22:58:34 10° W 23:01:52 81° N 23:05:11 10° E visible
02 Jun -3.4 00:35:08 10° W 00:38:17 42° SSW 00:38:36 41° S visible
02 Jun -3.8 23:42:59 10° W 23:46:15 61° SSW 23:48:06 23° SE visible
03 Jun -1.4 01:20:07 10° W 01:20:45 13° WSW 01:20:45 13° WSW visible
03 Jun -3.9 22:50:51 10° WNW 22:54:10 80° SSW 22:57:28 10° ESE visible
04 Jun -2.5 00:27:36 10° W 00:30:17 25° SW 00:30:17 25° SW visible
04 Jun -3.1 23:35:18 10° W 23:38:23 37° SSW 23:39:50 23° SSE visible
05 Jun -3.5 22:43:05 10° W 22:46:20 53° SSW 22:49:26 11° SE visible
06 Jun -1.6 00:20:30 10° WSW 00:22:05 14° SW 00:22:05 14° SW visible
06 Jun -2.2 23:27:46 10° W 23:30:21 21° SW 23:31:42 17° S visible
